This is the latest recevied weather packets stored in our database for station/object W9LRT-WX. If no packets are shown the sender has not sent any weather packets the latest 10 day(s).
| Time | Temp. | Humidity | Pressure | Rain* | Wind** | Luminosity | Snow |
|---|---|---|---|---|---|---|---|
| 1777466822 | 11.11° C | 93% | 1010.4 hPa | 0 mm | - | 127 W/m² | - |
| 1777465923 | 10.56° C | 93% | 1010.6 hPa | 0 mm | - | 58 W/m² | - |
| 1777465021 | 10.56° C | 94% | 1010.7 hPa | 0 mm | - | 37 W/m² | - |
| 1777464122 | 10.56° C | 94% | 1010.7 hPa | 0 mm | - | 25 W/m² | - |
| 1777463222 | 10.56° C | 95% | 1010.7 hPa | 0 mm | - | 18 W/m² | - |
| 1777462322 | 10.56° C | 95% | 1010.8 hPa | 0 mm | - | 12 W/m² | - |
| 1777461422 | 10.56° C | 95% | 1010.8 hPa | 0 mm | - | 14 W/m² | - |
| 1777460521 | 10.56° C | 95% | 1010.6 hPa | 0 mm | - | 7 W/m² | - |
| 1777459621 | 11.11° C | 94% | 1010.5 hPa | 0 mm | - | 0 W/m² | - |
| 1777458720 | 11.11° C | 94% | 1010.6 hPa | 0 mm | - | 0 W/m² | - |
| 1777457817 | 11.11° C | 94% | 1010.3 hPa | 0 mm | - | 0 W/m² | - |
| 1777456916 | 11.11° C | 95% | 1010.2 hPa | 0 mm | - | 0 W/m² | - |
| 1777456016 | 11.11° C | 94% | 1010.2 hPa | 0 mm | - | 0 W/m² | - |
| 1777455115 | 11.11° C | 94% | 1010.4 hPa | 0 mm | - | 0 W/m² | - |
| 1777454215 | 11.67° C | 94% | 1010.4 hPa | 0 mm | - | 0 W/m² | - |
| 1777453317 | 11.67° C | 94% | 1010.2 hPa | 0 mm | - | 0 W/m² | - |
| 1777452415 | 11.67° C | 94% | 1010.5 hPa | 0 mm | - | 0 W/m² | - |
| 1777451513 | 11.67° C | 93% | 1011 hPa | 0 mm | - | 0 W/m² | - |
| 1777450609 | 11.67° C | 92% | 1010.9 hPa | 0 mm | - | 0 W/m² | - |
| 1777449709 | 11.67° C | 92% | 1010.8 hPa | 0 mm | - | 0 W/m² | - |
| 1777448811 | 11.67° C | 91% | 1010.4 hPa | 0 mm | - | 0 W/m² | - |
| 1777447910 | 11.67° C | 91% | 1010.3 hPa | 0 mm | - | 0 W/m² | - |
| 1777447010 | 12.22° C | 90% | 1010.3 hPa | 0 mm | - | 0 W/m² | - |
| 1777446109 | 12.22° C | 90% | 1010.6 hPa | 0 mm | - | 0 W/m² | - |
| 1777445209 | 12.22° C | 89% | 1011.3 hPa | 0 mm | - | 0 W/m² | - |
* Rain latest hour (hover to see other rain measurements)
** Current wind speed in m/s (hover to see current wind gust speed)